Location: Asheville, NC
(35.6000°N, 82.5500°W)
Time: 16:16:03
(UTC-05:00)

Vanguard 1 - Pass Details

Date: 18 February 2018
Orbit: 650 x 3833 km, 34.2° (Epoch: 21 February)

Event Time Altitude Azimuth Distance (km) Brightness Sun altitude
Rises 17:59:32 0° 266° (W) 4,976 15.9 2.2°
Reaches altitude 10° 18:03:31 10° 266° (W) 3,506 14.9 1.5°
Maximum altitude 18:11:29 80° 181° (S) 934 10.1 -0.1°
Drops below altitude 10° 18:16:24 10° 94° (E) 2,212 11.3 -1.1°
Enters shadow 18:18:18 - 93° (E) 2,978 11.9 -1.5°
Sets 18:18:25 0° 93° (E) 3,025 - -1.5°
